Wind_Speed
89 92 93 95 99 101 108 115 114 115 109 90 74 58 52 60 63 63 60 61 69 74 77 77 74 73 72 70 68 66 63 61 60 58 55 51 48 44 42 40 40 38 33 34 35 36 38 38 35 31 35 38 34 32 30 29 28 27 28 26 25 29 30 26 22 19 15 15 16 15 14 14 14 14 14 14 12 11 10 9 7 6 7 8 9 11 13 14
91 93 96 99 102 105 110 117 117 118 116 105 89 64 55 61 61 63 62 61 65 70 78 79 76 75 73 71 68 67 65 62 62 59 56 53 50 46 44 42 42 40 34 33 35 36 37 38 36 31 34 39 36 33 31 30 29 28 29 28 28 32 31 24 21 20 17 17 15 14 15 14 15 14 14 14 13 12 11 10 8 7 7 7 8 9 11 13
92 95 99 103 106 110 114 119 120 121 121 119 108 75 58 58 60 67 65 62 64 67 78 80 78 77 74 73 70 68 67 64 64 60 57 55 51 48 46 44 42 41 35 33 36 39 39 38 39 37 36 38 37 35 33 31 30 30 29 30 32 31 27 22 21 21 19 18 15 14 15 15 15 15 14 14 14 13 12 11 10 9 9 8 9 9 10 11
91 97 102 107 112 114 118 123 123 123 124 126 120 90 63 55 56 67 69 63 63 67 77 81 79 78 75 74 72 70 68 67 65 60 57 56 53 50 48 46 43 41 38 36 36 38 41 40 40 40 37 36 37 37 35 33 31 31 29 30 32 29 26 23 22 21 20 19 17 16 15 14 16 15 14 14 14 13 12 11 10 10 10 9 10 10 10 10
90 97 104 112 117 120 123 126 126 124 125 125 123 102 70 57 55 59 68 65 63 68 75 81 80 77 76 74 73 71 69 69 65 60 59 57 54 53 51 49 45 42 42 40 35 35 38 39 41 41 37 34 36 37 36 34 33 32 30 29 29 27 26 24 24 23 21 20 18 16 13 14 16 16 15 14 14 13 13 13 12 12 11 10 10 10 11 10
87 95 105 114 118 125 128 127 127 123 123 123 123 112 82 69 65 55 65 68 61 66 72 79 81 77 76 75 74 72 70 70 65 60 60 58 57 56 53 50 47 43 43 41 38 36 34 34 37 38 38 35 34 36 37 36 34 32 31 30 27 27 26 25 26 25 23 22 19 16 14 16 17 16 15 14 13 14 14 14 13 13 12 11 10 10 10 10
82 92 103 110 109 121 130 124 124 121 120 123 122 120 98 84 75 53 62 71 61 63 69 76 81 78 77 77 76 74 71 70 65 61 60 60 59 58 55 52 48 45 43 41 39 38 35 33 32 31 34 37 36 37 37 36 35 34 34 32 30 29 26 26 28 26 25 23 20 17 17 17 16 15 16 15 14 15 15 15 14 14 14 12 11 10 9 9
76 87 97 102 96 110 127 119 119 119 117 122 122 121 110 98 86 59 59 71 61 61 70 75 80 80 78 77 77 75 73 72 66 62 61 62 62 60 57 54 51 48 44 42 41 39 38 35 31 28 29 34 37 38 36 36 38 37 35 33 32 30 27 27 28 28 26 24 22 20 18 17 16 16 17 16 15 15 16 16 16 15 14 14 12 11 10 10
71 82 90 96 90 98 119 114 112 116 113 118 118 118 114 105 96 72 60 67 62 61 68 76 80 80 79 77 77 75 73 72 67 63 63 63 64 62 59 56 54 49 45 44 42 40 40 37 33 30 27 29 34 36 36 37 38 37 35 34 33 31 29 29 29 29 27 25 24 21 20 18 16 17 18 17 15 16 17 17 17 16 16 15 14 13 12 11
67 76 84 94 90 91 109 108 105 109 107 109 111 114 113 105 98 83 66 64 64 64 65 75 82 81 79 77 77 76 73 72 66 63 63 63 63 63 61 58 55 51 47 45 43 41 41 39 34 31 30 29 31 33 35 37 37 36 36 34 34 34 33 30 30 30 28 26 25 24 21 18 17 18 17 17 16 17 18 18 18 17 17 16 15 15 13 12
64 72 83 91 87 89 103 101 97 100 98 100 102 104 105 101 92 83 74 67 67 66 63 72 82 81 79 77 76 76 75 72 66 63 64 63 63 63 61 59 56 53 50 47 43 43 44 41 38 36 34 33 31 32 33 33 33 35 37 35 35 37 35 31 30 31 29 27 26 25 23 21 19 17 17 20 20 19 19 19 18 18 17 17 16 16 15 14
63 71 82 87 83 90 103 97 91 95 92 88 87 88 92 94 85 79 79 71 67 68 63 70 81 82 79 77 76 76 74 71 66 64 64 63 62 62 61 61 58 54 52 48 44 43 43 41 42 40 36 35 34 33 32 31 31 33 34 35 36 36 35 33 32 31 29 28 26 26 26 23 20 19 21 24 21 19 20 20 19 18 17 18 18 17 17 16
66 71 78 82 82 89 103 98 88 95 92 79 75 77 83 89 83 81 83 74 68 68 66 70 78 81 79 76 76 76 73 70 66 65 65 63 63 63 62 63 60 56 54 50 47 44 43 45 46 43 39 38 37 34 33 32 30 31 32 34 35 35 34 34 34 30 29 29 26 27 28 24 22 24 25 24 20 20 21 21 20 18 18 18 18 18 17 17
65 70 74 79 83 88 98 96 89 97 93 77 72 73 80 88 84 80 81 75 68 66 67 71 77 79 78 76 76 75 73 70 68 66 65 65 64 64 63 63 62 59 57 53 49 46 45 48 48 45 42 40 38 36 35 32 30 30 31 32 34 35 33 33 34 31 30 30 27 29 28 24 26 27 25 23 20 20 21 21 21 19 18 18 18 18 18 18
61 69 74 78 84 88 93 91 88 97 92 75 72 73 78 86 83 81 80 75 70 67 66 70 77 79 76 77 76 74 73 70 69 67 66 65 65 65 63 62 63 62 60 55 54 52 47 46 46 46 46 43 41 41 38 34 32 30 29 29 30 33 33 32 32 32 33 31 29 30 27 25 28 28 24 23 23 21 20 21 21 20 19 18 18 18 18 19
60 69 74 79 84 87 90 86 88 95 87 73 74 76 79 82 83 86 85 77 74 71 67 69 77 81 76 77 77 75 74 71 69 67 66 65 64 65 63 63 65 65 61 55 55 56 50 46 47 49 48 46 44 43 39 37 35 30 27 27 27 29 31 31 31 32 34 32 30 31 27 25 29 28 24 24 25 23 22 22 22 21 20 19 18 18 18 19
63 68 72 80 83 86 86 83 89 95 84 73 76 79 78 80 82 87 86 79 78 74 69 67 71 79 79 78 78 76 74 71 69 68 67 66 64 64 64 64 65 65 63 58 53 55 54 50 49 51 50 47 46 45 42 40 37 30 26 26 24 25 28 29 30 32 34 33 31 31 28 26 29 28 25 25 26 25 23 23 23 22 21 20 19 18 18 19
64 66 71 79 83 85 82 80 90 96 85 72 74 79 78 79 80 84 85 80 77 73 69 68 71 78 83 82 79 75 73 71 70 69 68 67 64 65 66 66 66 65 66 64 54 53 58 56 51 51 50 49 48 47 45 41 35 29 27 26 25 25 24 26 30 33 35 34 33 33 29 27 28 28 27 27 27 26 25 24 23 22 21 20 20 20 19 19
65 67 69 77 83 83 78 81 94 97 86 70 70 79 80 80 78 80 87 84 80 77 74 75 75 76 79 81 79 74 71 70 70 70 68 67 66 67 68 67 67 66 67 68 60 53 57 58 55 53 52 51 50 49 45 39 32 30 30 29 28 26 23 25 29 30 33 34 34 33 31 28 29 28 28 30 30 28 26 25 23 22 20 20 21 21 20 20
66 68 68 75 81 80 76 86 99 96 87 70 68 82 84 84 80 76 85 88 84 82 79 75 71 67 69 76 80 75 72 71 70 70 68 68 68 68 68 67 69 69 68 69 65 57 54 56 56 55 52 49 49 48 43 36 32 33 34 32 31 28 24 25 25 24 30 34 33 33 32 30 29 29 30 32 33 31 27 25 23 22 20 20 21 21 21 21
65 68 69 74 78 79 79 90 101 99 91 74 70 85 87 87 85 76 80 84 82 80 78 74 69 66 67 73 78 76 74 74 72 71 69 69 68 68 68 68 69 71 70 70 68 62 57 56 57 55 51 48 49 49 43 37 36 38 38 35 33 30 27 24 20 22 29 32 31 33 32 29 30 31 31 34 35 33 28 25 24 23 21 20 20 21 21 22
63 67 71 75 74 78 86 92 99 103 97 77 72 85 87 87 86 78 78 79 79 77 75 74 72 71 70 71 75 75 75 75 74 74 72 70 70 69 69 68 69 70 70 71 70 66 63 60 58 55 53 50 49 49 44 40 42 43 41 38 33 30 28 24 20 24 28 28 28 30 29 27 29 32 32 34 36 33 29 27 27 26 25 23 21 21 21 22
63 66 70 75 71 77 91 94 96 105 99 77 72 83 86 86 83 78 78 78 77 76 74 74 74 72 71 72 77 78 76 74 74 74 73 73 72 71 70 69 69 70 70 70 69 67 65 63 60 57 55 52 50 49 45 43 45 46 43 39 34 30 30 28 24 25 26 25 25 27 26 24 27 31 32 33 34 33 30 29 30 30 29 27 25 23 22 21
60 64 68 72 71 76 90 93 95 105 98 76 72 80 82 85 82 74 74 76 78 77 73 72 72 70 70 70 72 77 77 76 75 73 74 75 74 72 72 71 70 70 71 70 68 67 66 64 61 58 57 55 52 50 46 44 45 46 43 39 35 33 33 32 29 26 26 26 26 26 24 21 24 29 29 30 31 30 29 30 30 29 30 29 27 25 23 21
55 62 65 68 70 75 85 90 93 102 97 76 72 79 78 83 84 72 70 74 76 78 75 72 72 70 69 68 68 73 76 76 75 74 74 74 73 72 73 72 71 71 71 69 68 68 68 66 63 61 59 57 55 52 47 44 44 45 44 39 36 35 36 36 33 28 28 29 28 26 23 21 23 26 25 27 27 25 25 28 28 26 26 26 25 24 23 23
54 58 62 63 67 74 80 84 90 101 100 80 72 78 75 77 82 75 72 73 73 79 80 77 76 73 71 72 70 70 72 74 75 74 73 72 72 72 73 72 71 70 70 69 68 68 69 68 65 63 60 58 56 53 49 45 45 46 44 39 37 38 39 38 34 32 33 33 29 26 24 22 23 23 22 23 24 21 21 23 22 22 22 23 24 25 25 25
54 55 57 59 64 72 76 82 91 101 102 84 72 77 72 72 80 78 75 73 72 78 80 79 78 74 73 75 73 71 73 75 74 74 74 73 72 72 72 71 70 70 71 70 69 69 70 68 66 64 60 58 56 52 48 46 46 46 42 39 38 39 40 39 36 36 37 36 32 29 28 25 23 21 20 20 21 19 18 18 17 18 19 21 23 24 23 24
52 52 52 54 61 68 72 80 89 97 100 85 72 75 72 69 79 80 76 74 72 76 79 78 76 74 74 75 74 74 74 74 73 74 75 74 73 72 72 71 70 70 70 69 69 68 67 66 64 61 57 55 52 48 45 43 43 43 40 38 39 39 40 40 38 38 39 39 36 32 32 28 22 20 20 19 17 16 16 16 16 17 18 19 21 21 21 21
49 48 48 51 58 65 71 77 83 91 100 89 73 74 73 70 77 80 77 73 70 74 78 77 77 78 79 77 76 77 75 72 72 73 75 76 76 74 72 71 70 70 69 67 66 65 64 62 59 56 53 51 48 45 43 40 41 42 39 38 38 38 40 41 39 39 42 43 39 35 35 32 24 21 21 18 14 13 14 15 15 16 17 18 18 19 19 20
46 44 44 47 54 62 69 75 80 89 99 94 78 73 73 70 73 77 77 69 63 72 79 79 81 84 83 80 80 80 79 76 71 71 75 78 79 77 73 72 70 70 69 68 67 65 63 62 58 54 52 50 47 46 44 42 43 44 41 40 40 40 41 43 41 41 45 46 42 38 37 35 27 22 20 19 15 14 15 16 17 17 16 16 16 15 15 17
47 44 43 44 48 56 64 72 80 88 98 97 83 76 75 70 66 69 73 65 58 68 81 84 85 85 84 84 83 80 78 79 74 72 75 78 79 79 76 75 73 71 71 70 69 67 64 64 61 57 55 53 51 49 48 47 47 47 44 41 42 43 44 45 45 45 48 48 44 39 38 37 30 21 18 20 18 17 19 21 21 20 18 17 15 13 13 14
49 47 45 44 44 49 56 68 78 85 95 98 89 81 78 74 66 64 68 64 55 62 78 89 89 86 85 84 83 81 79 82 80 75 73 74 78 81 79 79 78 76 76 74 71 69 66 64 63 60 58 57 55 53 53 52 51 50 48 45 44 46 47 49 50 50 50 49 46 40 38 38 33 24 21 22 21 21 23 23 24 23 21 19 17 15 15 14
48 48 48 46 44 45 51 63 73 80 91 98 96 91 86 83 74 62 62 62 54 57 72 88 91 86 84 84 85 83 80 82 85 81 74 72 74 78 80 80 79 78 78 76 73 71 70 67 66 64 61 60 59 57 56 55 55 54 53 50 48 50 51 51 53 53 50 48 46 41 38 38 36 30 26 24 23 24 24 24 25 25 24 21 19 18 18 18
45 45 46 45 45 46 49 57 65 74 86 94 98 98 94 91 79 62 58 58 52 53 65 80 87 85 83 85 88 88 82 80 85 85 79 75 74 76 79 80 79 77 76 74 72 72 71 71 71 68 65 64 62 61 59 55 53 53 53 51 50 50 51 50 52 52 49 47 47 43 40 40 37 33 29 26 26 26 25 25 26 26 25 24 22 21 21 20
44 43 43 43 44 45 47 52 59 69 80 86 92 95 94 93 82 65 58 57 52 51 61 76 83 82 83 85 87 90 87 83 84 86 83 80 78 77 78 79 78 77 77 76 73 71 71 70 69 67 65 63 62 61 59 56 53 53 54 53 51 52 52 52 52 51 50 49 49 47 44 41 38 35 33 30 28 27 26 25 25 26 26 25 25 24 23 22
43 43 42 42 42 43 46 49 54 63 73 79 83 86 89 91 84 69 58 56 54 50 57 73 82 81 82 85 86 88 89 86 85 86 85 82 79 77 77 77 77 77 79 78 75 74 73 72 70 66 63 62 61 60 57 54 53 55 55 55 53 52 52 52 52 51 50 51 51 49 46 42 40 39 36 32 28 25 25 25 25 26 26 26 27 27 25 24
44 43 42 41 41 42 44 46 50 57 65 71 75 78 85 90 85 73 60 54 57 53 51 65 80 82 83 87 86 86 88 86 84 85 86 83 80 78 76 75 76 77 77 76 75 75 74 74 73 70 66 64 63 62 59 55 54 56 56 54 52 52 51 51 51 51 50 53 54 52 48 45 42 41 37 32 28 25 24 26 27 26 27 28 29 29 28 27
43 44 42 42 41 41 43 44 47 53 58 64 68 72 82 88 85 80 69 56 57 57 50 55 69 75 79 86 87 84 84 85 83 83 83 83 82 80 77 74 73 75 75 74 74 74 74 74 73 71 68 66 64 64 63 61 60 61 59 56 54 53 53 52 53 53 53 54 55 53 51 48 45 42 37 33 30 28 26 26 28 29 30 31 31 31 31 30
42 43 43 42 42 42 42 42 45 48 52 58 63 69 79 85 85 86 80 64 57 57 51 49 57 64 69 79 86 84 80 80 82 81 80 79 77 75 75 72 71 72 73 73 73 73 74 73 73 72 69 66 65 65 65 64 63 63 63 61 59 56 55 53 53 53 53 53 54 55 54 52 48 42 37 35 32 30 29 28 29 31 32 33 34 34 32 30
41 42 42 42 42 42 42 41 42 45 48 52 57 64 74 82 83 86 86 74 61 58 52 46 49 56 59 68 80 84 80 77 78 79 78 75 70 70 73 71 69 69 70 72 72 73 73 72 73 72 70 69 67 66 66 64 63 63 63 63 62 60 58 56 53 53 53 53 53 54 54 53 49 43 38 36 35 32 32 32 32 32 34 35 35 34 32 30
41 41 41 41 42 42 42 40 41 42 44 47 51 58 68 76 80 84 88 81 67 59 53 45 45 50 53 58 69 78 80 78 76 76 76 74 71 70 71 70 67 67 68 70 72 72 73 72 72 72 72 69 67 65 64 63 62 61 60 60 60 59 58 56 54 52 52 52 53 54 55 53 50 46 41 39 38 37 35 35 35 34 34 34 34 33 31 31
41 41 40 40 40 41 41 39 39 39 41 45 48 53 61 68 75 80 85 83 71 61 55 47 43 45 49 53 59 66 74 77 77 77 74 72 70 67 65 66 67 67 68 69 70 71 73 73 72 71 70 68 67 66 65 64 63 61 60 59 59 59 57 56 55 52 51 52 52 53 55 54 51 50 48 44 41 39 38 38 38 36 35 33 33 32 32 32
41 41 40 39 39 40 40 38 38 39 39 41 43 49 56 61 67 74 81 83 76 67 60 54 46 42 46 52 55 59 64 70 74 76 74 72 70 67 65 67 69 70 72 72 73 74 75 75 73 72 71 69 68 67 64 63 64 63 61 60 60 60 57 55 54 53 53 52 50 51 55 56 54 52 53 50 43 39 40 41 40 38 36 34 34 34 35 36
41 40 40 40 40 40 40 38 37 37 37 38 40 44 50 54 59 68 76 82 81 74 68 62 54 46 44 51 57 57 59 64 67 71 73 72 72 71 69 69 71 73 75 76 76 76 75 76 76 75 75 74 72 70 68 67 67 66 63 60 59 58 56 56 56 56 58 56 53 54 57 58 56 54 55 53 44 39 40 40 39 39 38 37 37 37 39 41
41 41 40 40 40 40 39 37 36 35 35 36 37 40 45 49 52 60 71 79 82 81 76 70 62 52 45 51 58 57 58 62 63 66 70 71 71 73 72 71 71 72 73 73 75 76 76 78 79 79 80 80 78 76 74 72 71 70 68 64 61 61 61 60 59 60 61 58 57 58 58 57 55 53 53 51 44 39 39 38 38 39 39 39 40 42 43 45
41 42 42 41 40 38 38 37 36 35 34 33 35 38 41 44 47 54 65 73 78 83 84 77 67 58 49 50 57 56 54 58 62 63 67 70 71 72 72 72 70 69 69 71 74 75 77 79 79 79 79 78 77 75 72 71 71 70 68 66 65 65 65 64 64 63 61 59 60 59 56 54 51 50 51 49 43 41 41 40 38 38 40 43 44 46 47 48
40 40 40 39 39 38 37 35 34 33 32 32 34 36 37 40 43 49 59 67 72 79 85 82 72 62 54 49 53 54 49 51 58 60 62 68 70 71 71 71 69 68 68 70 72 72 75 78 77 76 75 74 74 73 70 67 66 65 64 64 64 64 64 65 65 61 57 60 62 56 51 50 48 47 49 48 45 45 46 44 41 40 43 47 48 49 50 50
41 40 38 36 35 36 36 36 35 34 33 33 34 35 37 38 40 44 52 61 67 73 81 84 76 68 59 50 50 52 46 45 52 57 59 61 66 71 71 69 68 67 67 69 70 71 72 74 72 71 71 72 72 72 70 68 66 65 64 63 62 62 62 64 63 58 56 60 60 51 47 51 50 47 47 49 50 51 50 49 47 45 46 48 50 52 53 53
40 40 40 39 36 33 33 34 35 36 36 35 35 36 37 38 37 39 44 53 61 68 76 81 79 74 66 55 49 49 45 40 45 54 57 57 61 67 71 71 69 66 65 66 67 69 70 69 69 68 69 70 72 71 70 70 68 68 67 65 64 64 63 63 62 59 59 61 59 53 52 55 55 52 51 53 55 55 54 54 54 51 48 47 49 52 53 52
41 41 40 40 40 38 35 33 33 33 34 35 34 34 34 36 37 38 41 46 54 63 70 77 79 77 73 63 51 46 44 40 39 47 55 56 58 61 66 71 71 68 66 67 66 66 66 66 66 66 67 70 70 69 69 70 70 69 68 67 66 66 66 66 64 63 64 64 60 58 59 60 58 57 56 57 58 59 58 57 55 53 49 48 49 51 51 50
41 41 40 39 40 40 39 37 34 33 33 32 31 30 30 33 36 39 42 44 48 55 63 69 73 76 77 71 58 48 44 40 38 42 50 55 58 59 60 64 67 68 67 68 67 66 64 64 64 65 68 68 66 67 70 70 70 71 71 70 69 69 68 67 65 63 65 64 61 61 63 61 58 57 56 58 59 60 59 57 54 53 52 51 50 50 50 51
40 41 41 40 39 39 39 39 38 37 34 31 29 28 28 31 35 40 43 44 45 50 56 62 66 71 76 76 68 60 54 49 44 43 46 51 55 58 60 60 62 64 64 64 66 66 65 66 66 66 68 65 64 67 68 69 73 76 72 67 66 67 66 66 65 63 63 63 62 62 62 57 54 54 55 56 58 57 56 54 53 53 55 55 53 52 53 52
Wind_Direction
222 219 216 216 215 217 219 218 216 214 211 208 202 193 188 191 196 200 203 210 214 214 215 216 215 214 214 211 209 209 209 210 210 209 211 212 211 207 205 207 207 206 204 201 201 204 203 202 205 210 213 212 207 207 211 216 219 216 214 216 216 217 215 212 216 217 214 221 217 212 216 215 218 220 221 219 215 211 203 201 200 207 218 218 214 206 205 208
221 218 215 214 214 215 218 218 216 214 213 211 208 199 187 190 194 198 203 206 210 215 215 215 215 214 213 211 209 209 209 210 210 208 209 211 210 208 206 206 208 207 205 201 200 203 202 203 210 213 214 213 210 209 210 214 219 219 216 216 219 220 215 210 216 216 215 223 219 215 217 217 219 220 222 221 216 211 204 201 195 198 213 222 222 214 208 209
220 216 213 212 212 213 216 217 216 214 214 214 213 204 189 193 196 197 206 206 202 210 214 214 214 214 213 212 210 209 209 210 210 208 208 210 209 209 207 206 209 209 207 203 200 203 205 207 212 215 218 215 212 212 211 212 217 221 219 216 220 221 215 210 217 218 219 226 223 220 219 219 222 221 222 223 221 216 209 206 196 194 205 215 218 217 212 209
218 214 210 209 209 210 213 216 216 215 214 216 216 209 193 196 201 200 206 207 201 206 211 212 213 213 213 212 211 208 208 209 209 208 208 210 209 209 209 207 209 208 208 209 205 206 208 209 213 215 217 216 215 215 214 214 215 219 221 219 220 220 214 211 216 218 220 226 226 224 221 223 228 225 223 224 224 221 215 211 202 199 204 213 217 216 214 211
217 212 208 207 207 208 211 215 216 215 215 216 216 211 197 194 202 208 210 206 202 205 209 210 211 212 213 212 212 208 208 209 207 207 207 208 210 210 209 208 208 207 208 212 211 211 213 213 216 217 216 216 217 218 217 216 217 218 221 222 221 219 213 211 216 216 218 224 226 227 226 229 231 228 225 224 224 222 217 212 207 206 206 210 218 220 217 214
216 212 208 206 207 207 210 215 215 214 214 215 216 211 202 196 200 213 216 209 204 206 208 209 210 211 212 212 212 209 208 208 206 207 207 207 210 210 210 209 208 208 209 211 210 213 216 217 220 221 219 220 219 221 219 218 219 219 221 222 223 223 214 212 217 215 215 221 224 224 225 229 232 231 230 226 224 225 223 217 212 211 210 208 215 224 224 219
217 213 209 207 208 208 209 214 215 213 213 214 215 212 207 202 201 214 218 209 204 206 209 210 209 210 211 212 212 210 208 207 206 207 207 207 210 211 210 210 208 208 209 211 210 211 215 219 222 222 221 221 220 222 222 222 222 220 221 220 222 225 216 212 218 216 215 217 220 221 223 227 231 233 233 229 224 226 227 224 218 213 213 211 211 221 227 226
218 214 211 207 208 209 209 214 214 212 212 213 215 213 210 207 206 216 215 206 203 205 209 210 209 210 211 212 212 210 208 207 205 206 207 207 209 210 211 210 210 209 210 214 212 211 215 219 221 221 219 218 218 220 222 224 224 222 223 222 222 225 219 215 217 217 216 215 216 220 223 226 228 231 234 230 224 226 228 226 223 216 215 215 211 214 222 228
217 214 211 206 207 208 208 213 213 211 211 212 215 214 213 211 210 214 208 202 202 201 207 209 209 210 210 212 212 211 210 207 205 206 208 207 208 210 211 211 211 211 211 213 212 211 216 219 218 219 218 217 217 219 220 223 224 223 226 225 225 227 223 219 219 218 216 215 216 218 222 224 226 230 234 233 227 227 228 227 226 220 217 217 214 213 214 221
216 214 208 205 207 208 208 212 211 208 209 211 215 215 214 213 212 212 207 203 202 199 203 207 207 209 210 211 212 211 210 208 205 206 208 208 208 210 211 212 212 213 212 211 212 214 218 220 219 219 218 218 217 217 219 223 225 226 228 227 227 228 225 220 222 221 217 217 217 218 221 221 225 230 234 236 231 228 228 229 228 225 222 219 217 217 214 214
213 210 203 202 208 208 208 211 208 204 205 208 214 217 215 213 212 213 213 206 202 201 202 205 207 208 210 211 212 212 210 209 206 205 209 209 209 210 212 213 213 213 213 211 212 216 219 220 220 220 219 218 218 219 221 223 226 229 230 230 229 229 226 221 223 222 219 221 220 220 221 220 223 227 233 236 231 228 229 229 229 228 226 225 222 220 220 217
205 203 200 202 208 209 208 210 205 199 200 204 212 217 214 211 208 211 215 206 201 204 202 204 207 206 209 210 212 212 211 211 208 205 208 209 209 211 211 213 215 214 214 213 215 218 218 220 221 220 218 219 221 222 223 223 224 228 230 231 231 230 228 224 224 222 219 222 223 222 222 220 222 225 230 233 229 227 230 230 229 228 228 229 228 225 224 223
196 197 199 203 206 207 209 209 202 196 197 200 207 213 210 206 205 209 214 209 203 205 204 205 207 206 207 209 211 212 211 211 209 206 207 209 209 210 211 212 214 214 213 214 216 217 215 218 221 219 217 219 221 223 225 224 223 228 230 232 233 232 229 225 223 222 220 221 223 225 224 220 222 225 229 232 230 229 231 233 231 228 229 230 232 231 229 228
193 195 197 202 205 207 209 207 200 195 197 200 203 209 208 203 205 212 216 212 207 206 207 208 207 206 206 207 210 211 211 211 210 208 207 209 209 209 211 212 214 214 211 212 215 214 212 216 220 219 217 220 222 224 226 225 224 227 231 233 234 233 231 226 224 223 221 220 222 228 225 220 226 228 231 235 235 234 234 236 236 232 231 231 234 235 235 233
193 193 197 202 204 206 208 206 198 194 196 200 202 206 207 203 204 214 218 213 208 206 208 210 208 207 206 206 209 210 210 211 210 209 208 209 209 209 210 211 212 213 210 211 213 213 211 214 219 220 219 219 221 223 225 226 226 228 231 234 235 234 231 228 226 224 224 223 224 229 224 219 229 232 232 236 237 237 236 238 240 238 235 233 234 236 237 238
191 191 198 202 203 205 207 204 195 192 194 198 201 202 205 203 202 210 216 214 211 209 211 213 209 207 207 206 208 209 209 210 211 210 209 209 209 210 211 211 212 212 210 209 212 213 212 212 215 219 219 219 221 223 225 227 229 229 231 236 237 236 232 230 229 227 227 228 228 230 225 220 229 233 231 234 237 235 235 236 238 238 238 235 235 237 238 240
190 192 199 202 202 203 204 201 193 191 194 197 200 200 202 204 203 208 214 216 216 215 215 216 212 209 208 207 208 209 209 209 210 210 210 209 209 210 211 211 212 212 211 210 211 211 213 213 214 218 219 218 220 223 225 227 229 230 235 240 241 240 236 233 234 232 230 230 230 231 226 221 228 233 231 233 237 236 233 235 237 237 238 238 237 238 239 241
192 195 199 201 201 201 201 198 191 191 194 195 197 197 198 202 204 208 211 214 214 215 214 213 213 210 208 207 206 209 210 210 211 211 211 210 210 211 211 211 212 213 212 212 213 211 212 214 215 218 219 219 220 223 225 226 229 234 239 242 242 240 237 234 233 234 232 230 230 231 228 224 227 231 232 233 236 238 235 234 237 238 239 240 240 240 240 241
195 196 198 200 200 200 200 194 190 192 194 194 195 195 196 199 203 207 211 212 211 210 211 209 211 211 209 207 206 208 210 211 212 212 212 211 211 211 210 211 212 214 214 213 215 215 214 216 218 220 220 220 221 224 226 227 229 236 239 240 242 239 235 236 234 233 236 232 230 230 228 226 228 230 233 235 235 236 235 232 235 239 240 242 244 244 243 244
197 198 198 199 199 199 199 193 189 191 194 194 194 193 195 197 198 202 208 213 214 214 215 215 217 216 212 208 207 207 208 210 212 213 213 213 212 212 211 211 212 214 214 214 215 217 216 218 220 222 224 224 225 226 227 227 230 235 237 237 241 241 236 237 237 236 239 235 232 231 228 225 227 229 231 235 237 236 235 234 235 239 241 243 246 247 248 248
198 199 198 198 199 198 199 195 190 191 194 196 193 191 196 197 197 197 200 208 213 215 218 219 220 219 215 211 208 209 210 209 211 212 213 214 214 214 213 213 214 214 215 214 214 216 218 219 221 223 225 227 228 228 228 228 230 234 235 234 235 240 240 238 237 239 239 236 233 232 228 224 227 229 230 234 238 237 236 237 236 238 241 244 246 247 249 250
200 202 199 197 198 196 198 199 194 193 194 195 192 190 195 199 198 198 199 204 208 210 214 215 215 214 214 211 207 209 212 212 211 211 211 213 214 215 214 214 215 216 217 216 214 215 217 219 220 222 224 226 228 228 227 226 228 232 233 233 233 238 244 244 238 238 240 236 232 232 229 225 226 229 230 234 239 240 240 241 240 240 244 247 247 247 247 249
202 204 201 198 196 193 198 202 199 195 195 194 190 188 192 197 197 197 200 205 206 207 210 210 210 209 210 209 206 206 210 213 214 214 213 213 214 215 215 215 216 217 218 218 217 217 219 220 220 221 223 226 227 227 225 225 228 232 233 234 234 236 243 246 240 238 241 238 232 231 228 222 225 229 230 234 239 242 244 245 245 246 249 251 248 246 247 248
204 205 203 202 198 194 198 203 201 198 195 192 189 186 188 193 194 194 197 201 203 204 207 207 207 207 208 209 207 206 208 211 214 216 216 216 215 214 215 216 217 217 218 218 218 219 221 223 223 224 225 227 229 228 226 226 230 233 234 235 236 237 240 243 242 239 240 239 233 230 226 218 223 229 230 235 238 241 244 246 248 251 253 251 248 248 250 251
201 204 204 205 202 198 200 204 203 198 194 191 188 186 187 191 192 192 194 199 200 201 204 204 201 203 207 208 207 207 207 209 212 213 216 218 217 216 216 216 217 217 218 218 219 220 222 224 225 227 228 230 231 231 230 231 234 235 235 235 236 236 237 239 241 241 241 241 236 232 227 216 221 229 230 235 239 240 241 243 247 251 253 253 251 252 255 257
201 203 205 206 204 202 203 206 204 198 194 192 187 185 187 190 191 192 195 197 201 202 203 203 200 199 203 206 206 205 206 208 210 211 213 216 218 219 219 218 218 218 218 218 219 221 221 223 225 227 228 231 233 233 233 233 234 235 233 234 235 235 236 238 240 242 243 241 238 238 234 219 217 227 229 233 240 240 240 241 244 248 251 254 255 255 258 259
202 204 206 207 206 206 207 207 204 198 195 193 187 183 186 190 190 192 194 195 199 203 204 205 203 200 201 205 205 205 207 207 207 209 211 213 215 218 220 220 220 221 220 219 219 220 221 222 224 226 227 230 232 233 233 233 234 235 233 234 235 236 238 238 238 242 244 243 240 238 238 228 215 221 228 231 238 242 243 244 245 246 247 251 255 258 260 260
203 206 208 207 207 208 209 208 204 199 195 191 187 183 184 189 191 192 195 194 196 202 204 204 203 202 202 205 205 206 209 209 208 209 210 212 214 216 218 219 221 223 223 222 222 221 222 224 226 227 228 230 232 234 234 234 236 237 234 234 235 237 239 240 238 240 245 246 242 238 241 237 216 212 227 230 235 244 247 250 250 249 249 250 255 260 262 263
201 205 208 206 206 209 210 209 205 201 197 192 188 184 183 188 193 195 197 196 195 200 204 203 201 200 202 203 204 206 209 210 211 212 211 212 213 214 216 217 219 221 223 224 225 224 225 226 228 230 231 232 233 235 235 234 236 237 235 233 235 237 240 241 239 240 244 245 242 240 242 242 223 209 225 230 228 237 244 249 248 246 248 250 253 258 261 263
199 201 204 205 206 209 212 210 205 202 199 194 189 186 183 186 193 196 197 196 195 198 202 204 201 200 201 201 203 205 208 209 210 213 213 213 213 213 214 215 218 220 221 222 223 224 225 227 228 230 231 231 232 233 233 233 234 235 234 233 234 236 239 242 240 240 243 243 241 241 243 245 231 210 222 235 228 228 238 244 243 241 243 247 252 256 261 265
200 200 201 203 205 208 211 210 207 204 200 195 191 188 186 187 194 198 196 194 194 197 201 203 202 202 201 201 203 204 207 210 209 211 214 214 214 213 213 213 214 217 219 220 221 222 223 225 227 228 229 231 230 230 231 232 233 235 234 233 234 236 238 241 241 239 241 242 242 241 244 248 236 214 223 238 234 231 237 241 245 245 243 244 251 259 260 262
202 202 202 203 204 206 209 209 209 207 202 197 194 193 192 194 198 199 196 193 191 194 200 203 202 202 202 201 203 204 206 209 209 209 212 214 215 215 216 216 215 215 217 218 220 222 222 223 225 226 227 229 230 230 230 231 232 233 233 232 232 234 236 239 240 239 240 243 245 245 247 248 241 234 237 239 237 236 237 242 247 249 249 246 248 253 255 255
202 204 205 205 205 205 207 209 210 209 205 200 200 199 200 203 202 195 193 193 190 190 197 202 201 201 202 200 201 205 207 209 209 208 209 212 215 217 218 219 219 219 219 219 219 220 221 221 222 223 224 227 229 230 231 232 233 234 234 232 231 233 235 237 240 241 241 245 248 249 250 247 244 245 245 241 242 241 239 243 247 250 252 252 248 247 251 256
201 203 205 206 206 206 207 209 210 210 208 206 206 205 207 210 203 192 191 193 190 189 193 199 200 200 201 201 201 204 206 208 209 208 207 208 212 214 216 217 218 219 221 221 221 221 222 222 222 222 222 224 227 229 230 231 233 235 236 235 234 236 238 240 243 245 245 247 248 249 248 246 245 248 249 245 243 242 242 242 246 250 253 254 254 252 253 256
200 201 202 203 204 207 208 209 210 211 210 210 210 210 212 212 202 191 192 193 190 188 190 196 200 200 201 202 203 205 206 208 210 209 209 209 210 212 215 217 218 219 221 222 222 223 225 226 226 225 225 225 226 228 229 228 229 231 234 234 235 237 239 240 243 245 247 247 247 247 247 248 250 251 250 247 243 242 244 245 247 252 254 256 258 258 258 259
199 199 200 200 202 205 208 209 210 211 212 213 213 214 214 212 202 193 192 193 192 189 188 192 198 201 203 203 204 206 208 210 211 211 211 212 212 213 215 217 219 221 223 223 223 224 226 227 227 227 228 228 228 229 230 230 231 232 233 234 234 236 238 241 243 245 247 249 247 247 248 249 249 249 249 250 249 247 247 249 252 253 255 258 259 260 262 262
199 199 199 199 200 203 207 209 210 211 214 215 215 216 215 211 203 195 192 193 194 191 188 191 196 201 205 206 205 207 209 210 211 212 212 213 215 216 216 217 218 220 223 224 225 225 226 227 227 227 227 227 228 229 228 228 230 233 235 236 237 236 237 239 242 243 246 247 247 246 247 248 248 249 251 254 256 254 250 250 252 253 255 257 258 261 262 262
199 200 200 199 198 201 205 206 208 210 213 215 215 217 215 211 204 197 193 193 194 192 188 190 196 200 205 209 209 209 210 210 211 213 213 213 214 216 216 217 219 220 222 224 225 226 227 227 228 228 227 227 228 229 227 226 228 231 233 234 235 236 236 237 240 242 244 246 247 248 249 249 249 251 254 257 259 259 256 251 251 253 254 256 259 262 263 264
199 200 200 199 198 200 203 206 207 209 212 214 216 217 215 212 207 201 198 195 194 193 188 187 195 198 201 207 210 212 213 213 212 213 213 213 213 214 215 216 218 219 221 222 223 225 227 228 229 229 229 228 228 229 229 229 230 231 232 232 233 234 235 236 239 242 244 246 248 249 249 249 250 252 256 258 259 261 261 258 256 256 256 257 258 260 263 266
198 199 199 199 199 199 202 204 206 209 212 213 216 217 216 214 210 207 204 200 195 193 189 184 191 197 199 202 208 212 214 215 214 214 214 214 213 213 214 215 216 218 220 221 221 223 225 227 229 229 229 228 228 230 232 233 233 234 235 236 236 236 237 237 238 240 243 246 247 249 250 250 252 255 257 260 261 263 263 263 261 259 258 259 260 261 264 266
198 198 198 198 199 200 201 202 205 208 211 213 215 217 217 216 214 212 210 205 198 194 191 185 187 194 199 202 206 210 214 215 215 216 216 215 213 212 213 215 216 218 219 220 220 221 223 225 227 229 229 230 231 233 234 234 234 235 236 239 240 241 242 242 242 243 245 248 250 251 251 251 255 257 257 259 261 262 263 264 263 262 260 260 262 264 265 266
199 198 197 197 199 201 201 203 206 209 212 215 216 216 217 217 216 216 213 208 200 195 195 193 189 191 197 203 206 209 212 214 214 215 216 216 215 214 214 216 218 218 220 222 223 224 224 225 225 227 229 230 230 231 231 233 234 234 234 235 237 239 240 242 245 245 247 248 250 253 252 250 253 257 257 257 258 261 264 265 264 264 263 263 265 267 268 269
200 199 197 197 198 200 199 200 205 209 212 215 217 218 218 219 219 218 215 210 203 198 199 199 197 196 199 202 206 209 212 214 215 216 218 217 217 217 216 216 218 219 221 223 223 223 224 224 224 226 227 228 229 230 231 232 233 233 233 234 237 239 241 242 244 245 245 245 247 251 251 247 249 254 255 256 257 259 262 264 265 267 267 268 270 270 271 271
200 200 199 199 199 200 200 202 206 210 213 216 219 220 220 220 221 220 217 213 206 202 202 203 203 203 204 203 204 207 212 214 215 216 218 219 218 218 218 217 218 220 223 224 224 225 226 227 226 226 226 227 227 228 228 229 232 234 235 235 238 241 242 242 242 243 244 243 244 246 247 246 248 251 254 257 259 260 262 264 267 270 271 273 273 273 273 272
202 200 197 198 201 202 204 206 208 211 213 217 221 222 222 222 222 221 219 215 211 206 205 206 205 205 204 202 201 203 208 214 215 213 215 218 218 217 217 217 218 220 223 225 227 227 227 229 229 229 229 230 230 231 232 233 234 236 235 235 236 237 238 238 239 240 241 242 243 245 246 247 249 253 256 260 264 265 266 267 269 271 273 274 273 272 271 269
206 204 201 200 201 203 205 207 210 213 216 220 223 226 226 224 223 223 221 218 215 212 210 209 207 206 204 200 198 199 202 209 215 215 214 216 217 217 217 216 218 220 222 224 226 227 228 230 232 232 234 236 237 239 239 238 237 237 238 238 236 236 236 237 237 238 242 244 244 245 247 249 252 257 261 264 267 269 269 269 269 269 271 270 269 268 267 267
207 208 208 207 207 207 207 208 211 215 217 219 223 225 226 225 224 224 223 221 218 216 214 212 208 207 205 199 196 197 196 203 211 215 215 216 216 217 218 218 218 219 221 223 225 227 228 230 232 233 234 236 238 239 238 238 239 240 240 241 240 240 241 241 242 244 246 247 248 249 252 255 256 259 262 265 266 266 266 266 265 263 264 265 265 265 266 267
209 208 208 209 213 215 214 213 213 213 214 214 215 217 218 218 220 222 224 223 220 218 217 214 210 209 208 202 197 195 194 197 206 212 215 216 215 215 217 217 217 218 220 222 223 225 227 229 231 233 233 234 236 237 237 237 237 238 238 239 240 241 242 244 246 247 247 249 251 252 254 255 254 255 258 260 261 261 262 263 263 260 259 260 262 264 265 267
210 210 208 207 207 210 213 214 213 212 212 212 214 216 215 214 214 216 222 224 222 220 219 215 212 211 211 208 202 197 194 195 202 209 214 215 214 215 216 218 218 218 220 222 224 225 226 228 229 231 233 234 235 236 236 236 236 236 235 235 236 237 239 241 242 243 243 246 248 247 248 249 250 251 252 255 257 259 260 261 262 261 258 257 259 261 263 265
209 209 210 209 206 204 205 207 210 212 213 214 216 218 219 218 214 212 217 224 224 223 220 218 216 215 214 212 207 201 199 197 200 207 212 215 216 215 217 220 221 221 222 223 224 225 227 228 229 231 233 234 235 236 236 236 236 236 235 235 235 236 237 237 238 240 242 244 245 245 246 247 249 250 251 253 255 257 258 258 260 261 260 259 257 259 262 264
211 210 210 210 209 207 206 205 207 210 212 214 214 215 216 217 214 211 213 219 224 225 223 221 220 219 218 215 210 206 206 204 203 206 209 213 216 216 217 220 221 222 223 224 225 225 227 228 229 230 232 232 233 234 235 236 237 237 235 234 235 237 238 239 240 242 244 246 246 245 247 249 250 251 252 253 254 256 257 258 259 261 262 261 259 259 261 263
210 210 210 209 209 209 208 207 207 209 212 213 211 209 208 207 208 207 209 215 221 225 225 224 223 222 221 217 214 214 215 213 214 213 207 208 214 217 218 219 219 221 222 224 226 226 227 228 229 229 231 232 232 233 235 237 238 237 234 234 236 238 240 241 241 241 243 245 245 246 248 250 251 250 251 252 253 254 256 257 258 258 259 259 260 260 261 262
Height
5591 5601 5611 5618 5624 5628 5629 5638 5652 5660 5666 5670 5675 5681 5688 5697 5706 5717 5726 5729 5732 5738 5742 5748 5753 5758 5762 5768 5773 5778 5782 5786 5790 5794 5800 5805 5810 5814 5817 5819 5820 5822 5824 5825 5828 5831 5834 5837 5840 5842 5843 5845 5846 5849 5851 5853 5855 5857 5858 5860 5862 5861 5861 5864 5866 5869 5871 5871 5872 5874 5875 5876 5877 5878 5879 5879 5880 5881 5881 5882 5882 5884 5885 5885 5886 5886 5887 5888
5579 5590 5600 5608 5615 5620 5621 5628 5642 5653 5659 5663 5668 5677 5685 5693 5703 5713 5720 5724 5729 5734 5737 5742 5748 5753 5758 5764 5769 5774 5778 5782 5786 5791 5797 5802 5807 5811 5814 5816 5818 5820 5822 5824 5827 5830 5833 5836 5837 5839 5840 5843 5845 5847 5849 5852 5854 5855 5857 5859 5859 5858 5860 5865 5867 5869 5870 5870 5872 5874 5875 5876 5877 5878 5878 5879 5880 5880 5881 5881 5882 5883 5884 5885 5886 5886 5887 5887
5567 5577 5588 5597 5604 5610 5612 5618 5632 5644 5652 5655 5661 5675 5682 5689 5700 5709 5715 5717 5723 5728 5731 5737 5743 5749 5754 5760 5765 5769 5774 5778 5782 5789 5795 5799 5804 5809 5811 5814 5816 5818 5821 5823 5825 5827 5830 5832 5834 5836 5838 5841 5843 5845 5847 5850 5852 5853 5855 5857 5856 5857 5862 5866 5866 5868 5869 5870 5872 5873 5874 5875 5876 5877 5878 5879 5880 5880 5881 5881 5882 5882 5883 5884 5885 5886 5887 5887
5555 5565 5576 5585 5593 5601 5604 5608 5621 5634 5644 5648 5656 5671 5679 5685 5696 5705 5709 5712 5716 5720 5725 5731 5738 5745 5751 5756 5760 5764 5769 5773 5779 5787 5792 5797 5802 5805 5808 5811 5812 5816 5819 5820 5822 5825 5828 5830 5833 5834 5836 5839 5842 5843 5846 5848 5850 5852 5854 5854 5855 5859 5862 5864 5865 5867 5868 5869 5870 5871 5873 5875 5876 5877 5878 5879 5880 5881 5881 5881 5882 5882 5883 5884 5885 5885 5886 5887
5544 5554 5564 5574 5583 5591 5595 5598 5610 5625 5636 5642 5651 5666 5675 5681 5691 5701 5705 5707 5711 5714 5719 5726 5733 5741 5747 5751 5755 5760 5765 5769 5777 5785 5789 5794 5798 5801 5805 5808 5810 5814 5816 5818 5822 5824 5827 5830 5831 5833 5835 5838 5840 5842 5844 5846 5848 5850 5852 5853 5855 5858 5861 5863 5864 5865 5867 5868 5869 5871 5873 5874 5875 5876 5877 5878 5879 5880 5881 5881 5881 5882 5882 5883 5884 5885 5886 5886
5535 5544 5553 5564 5574 5582 5587 5591 5602 5617 5628 5636 5645 5658 5670 5674 5683 5695 5700 5703 5706 5708 5714 5721 5728 5736 5742 5747 5751 5756 5761 5767 5776 5781 5785 5791 5794 5797 5801 5805 5808 5811 5813 5816 5819 5822 5825 5828 5830 5832 5835 5837 5839 5841 5842 5845 5846 5849 5850 5852 5855 5856 5859 5862 5862 5863 5865 5866 5868 5870 5872 5872 5874 5876 5877 5878 5879 5880 5880 5880 5881 5881 5881 5882 5883 5885 5886 5887
5527 5535 5544 5556 5565 5572 5581 5584 5595 5610 5621 5631 5638 5650 5663 5667 5676 5688 5694 5698 5702 5705 5710 5717 5724 5730 5736 5742 5746 5752 5757 5764 5772 5777 5782 5786 5790 5794 5798 5802 5806 5808 5811 5814 5816 5819 5823 5826 5828 5831 5834 5836 5838 5839 5841 5843 5845 5847 5848 5851 5853 5854 5858 5860 5860 5862 5863 5865 5867 5868 5869 5871 5873 5875 5876 5877 5878 5879 5879 5880 5880 5881 5881 5882 5883 5884 5886 5887
5520 5528 5536 5549 5557 5564 5573 5577 5589 5603 5614 5624 5631 5642 5654 5661 5672 5682 5687 5692 5697 5701 5706 5713 5719 5725 5732 5738 5743 5749 5754 5759 5768 5774 5777 5782 5785 5790 5794 5798 5802 5806 5810 5812 5814 5818 5821 5823 5826 5829 5831 5833 5836 5837 5840 5841 5842 5844 5846 5849 5851 5853 5856 5858 5858 5860 5862 5864 5865 5866 5868 5869 5872 5874 5875 5876 5877 5877 5878 5879 5879 5880 5881 5881 5882 5883 5885 5886
5513 5521 5531 5542 5550 5559 5567 5571 5583 5597 5609 5620 5626 5636 5648 5657 5667 5675 5680 5688 5693 5697 5702 5709 5715 5721 5728 5735 5740 5746 5751 5756 5765 5770 5773 5778 5782 5787 5791 5795 5799 5804 5807 5809 5812 5816 5818 5821 5824 5826 5829 5832 5833 5835 5837 5838 5839 5842 5844 5847 5850 5851 5854 5856 5857 5859 5860 5862 5864 5865 5866 5868 5871 5872 5873 5875 5876 5877 5877 5877 5878 5879 5880 5880 5881 5882 5884 5886
5507 5515 5526 5536 5545 5555 5561 5566 5578 5593 5605 5617 5622 5630 5642 5653 5663 5671 5677 5684 5690 5692 5697 5704 5710 5717 5723 5729 5735 5741 5748 5753 5762 5767 5770 5775 5780 5784 5788 5792 5797 5801 5804 5807 5811 5814 5816 5820 5823 5825 5827 5829 5831 5832 5834 5835 5838 5841 5842 5845 5847 5848 5850 5854 5856 5857 5859 5861 5862 5863 5865 5867 5869 5870 5872 5874 5875 5875 5876 5876 5877 5878 5879 5880 5881 5882 5883 5884
5503 5512 5522 5532 5541 5550 5555 5561 5575 5589 5602 5615 5619 5624 5637 5649 5661 5671 5674 5680 5686 5688 5695 5701 5705 5713 5720 5727 5733 5738 5744 5750 5758 5764 5766 5772 5777 5781 5786 5790 5794 5798 5801 5805 5808 5811 5814 5818 5820 5821 5824 5826 5828 5829 5831 5834 5837 5838 5840 5843 5844 5845 5848 5852 5854 5855 5858 5860 5861 5862 5864 5866 5867 5869 5870 5871 5872 5874 5874 5875 5876 5877 5878 5879 5880 5881 5882 5883
5500 5510 5520 5530 5537 5544 5550 5558 5573 5587 5599 5611 5616 5621 5634 5646 5659 5669 5670 5675 5682 5685 5692 5697 5701 5709 5716 5722 5727 5734 5741 5747 5754 5759 5762 5768 5773 5778 5782 5787 5791 5795 5800 5803 5806 5808 5812 5815 5815 5818 5821 5824 5825 5827 5829 5832 5834 5835 5837 5840 5841 5843 5846 5850 5851 5853 5856 5858 5860 5861 5862 5864 5866 5868 5867 5867 5870 5872 5873 5874 5875 5876 5877 5878 5879 5880 5881 5882
5497 5507 5518 5527 5533 5539 5545 5556 5572 5584 5595 5608 5613 5618 5630 5642 5654 5662 5663 5669 5677 5681 5688 5692 5696 5704 5710 5716 5722 5730 5738 5743 5749 5754 5757 5762 5767 5772 5777 5782 5786 5791 5796 5800 5802 5806 5809 5810 5810 5815 5819 5820 5823 5825 5827 5829 5832 5833 5835 5837 5839 5841 5844 5847 5849 5851 5854 5856 5858 5859 5860 5863 5865 5864 5864 5866 5869 5870 5872 5873 5874 5875 5875 5876 5878 5879 5881 5882
5495 5505 5515 5524 5529 5535 5542 5554 5570 5580 5592 5604 5610 5617 5627 5637 5650 5656 5657 5665 5673 5680 5685 5688 5692 5698 5703 5710 5717 5725 5732 5737 5744 5750 5753 5757 5762 5767 5773 5778 5782 5787 5791 5795 5798 5801 5803 5804 5807 5812 5815 5818 5821 5823 5824 5827 5829 5831 5832 5835 5837 5839 5842 5845 5847 5850 5851 5853 5856 5856 5858 5862 5862 5862 5864 5866 5868 5869 5871 5872 5873 5874 5874 5875 5876 5877 5879 5880
5493 5504 5513 5519 5525 5532 5539 5552 5567 5578 5591 5602 5608 5617 5625 5635 5649 5655 5653 5659 5669 5677 5682 5684 5687 5692 5697 5703 5711 5719 5727 5733 5740 5745 5749 5754 5759 5764 5770 5774 5778 5781 5786 5790 5794 5796 5799 5802 5805 5808 5811 5815 5817 5819 5821 5824 5826 5828 5831 5833 5835 5837 5840 5843 5845 5848 5849 5851 5854 5853 5857 5861 5859 5861 5863 5865 5866 5867 5869 5870 5871 5873 5874 5875 5875 5876 5878 5879
5493 5502 5510 5516 5522 5530 5538 5551 5566 5578 5590 5601 5607 5615 5623 5632 5644 5649 5649 5655 5664 5670 5674 5676 5680 5687 5692 5698 5706 5714 5721 5728 5735 5742 5746 5750 5755 5761 5766 5770 5772 5777 5782 5788 5791 5793 5797 5799 5801 5803 5807 5812 5814 5816 5820 5822 5823 5827 5830 5832 5834 5836 5838 5841 5843 5845 5847 5849 5851 5851 5856 5859 5857 5859 5862 5862 5863 5864 5867 5868 5869 5871 5872 5874 5875 5876 5876 5877
5493 5500 5507 5513 5519 5528 5538 5551 5565 5576 5588 5598 5605 5613 5622 5629 5637 5644 5646 5651 5658 5663 5669 5673 5679 5685 5688 5693 5701 5708 5717 5724 5731 5738 5742 5746 5752 5756 5761 5764 5769 5775 5780 5785 5788 5791 5793 5795 5797 5800 5804 5808 5811 5813 5816 5818 5821 5827 5830 5832 5833 5835 5837 5840 5842 5843 5845 5847 5849 5850 5854 5856 5856 5857 5860 5860 5861 5862 5864 5866 5867 5869 5871 5873 5874 5875 5875 5876
5492 5498 5503 5509 5517 5527 5537 5550 5563 5573 5584 5594 5601 5610 5620 5626 5633 5639 5642 5646 5653 5658 5662 5665 5668 5670 5673 5682 5695 5706 5716 5724 5729 5733 5738 5743 5748 5751 5756 5761 5766 5771 5775 5779 5783 5786 5788 5790 5794 5796 5800 5804 5807 5809 5812 5816 5823 5828 5830 5831 5832 5832 5835 5837 5838 5839 5841 5844 5846 5847 5851 5854 5854 5855 5857 5858 5859 5860 5862 5864 5865 5867 5869 5871 5872 5873 5874 5875
5489 5495 5500 5506 5516 5525 5535 5547 5559 5569 5579 5588 5596 5605 5615 5622 5627 5633 5635 5636 5639 5641 5642 5646 5651 5658 5671 5687 5699 5707 5716 5722 5725 5729 5734 5739 5742 5745 5751 5757 5762 5766 5769 5774 5779 5782 5785 5787 5790 5792 5796 5800 5803 5806 5811 5818 5825 5827 5827 5829 5829 5830 5833 5834 5834 5837 5838 5840 5843 5845 5849 5851 5852 5854 5855 5855 5857 5858 5859 5862 5864 5865 5867 5869 5870 5872 5873 5874
5487 5492 5497 5505 5513 5523 5532 5541 5553 5565 5574 5583 5592 5599 5605 5611 5617 5623 5626 5627 5632 5637 5642 5651 5662 5673 5685 5692 5695 5701 5709 5714 5719 5725 5730 5735 5738 5742 5748 5753 5756 5759 5764 5770 5775 5779 5782 5785 5787 5790 5795 5799 5803 5806 5812 5819 5824 5824 5824 5826 5826 5828 5830 5831 5833 5837 5836 5837 5840 5842 5845 5848 5850 5851 5852 5852 5853 5855 5857 5860 5862 5863 5865 5867 5869 5870 5871 5872
5485 5489 5494 5502 5511 5521 5529 5537 5548 5559 5567 5578 5588 5592 5596 5602 5607 5613 5616 5622 5633 5641 5648 5660 5670 5676 5682 5685 5692 5702 5705 5707 5714 5720 5726 5730 5734 5739 5744 5749 5751 5755 5759 5764 5769 5774 5778 5780 5784 5789 5793 5798 5801 5805 5811 5818 5820 5819 5820 5822 5824 5826 5827 5829 5834 5836 5833 5834 5837 5838 5841 5845 5847 5848 5849 5849 5850 5853 5856 5858 5860 5861 5863 5865 5867 5868 5869 5870
5482 5486 5492 5500 5508 5518 5526 5532 5541 5551 5559 5570 5579 5584 5593 5600 5606 5611 5615 5620 5630 5637 5645 5656 5660 5665 5672 5680 5691 5698 5699 5703 5708 5712 5718 5724 5729 5735 5741 5745 5749 5753 5756 5759 5764 5769 5772 5775 5780 5786 5790 5794 5797 5801 5808 5813 5814 5814 5816 5819 5823 5825 5826 5828 5832 5832 5831 5833 5835 5836 5839 5843 5844 5845 5847 5847 5848 5851 5855 5856 5858 5859 5860 5862 5865 5866 5867 5868
5479 5484 5491 5498 5506 5516 5521 5526 5534 5544 5553 5563 5572 5579 5590 5598 5605 5612 5616 5621 5627 5633 5641 5648 5651 5658 5665 5670 5678 5685 5692 5701 5705 5711 5716 5719 5725 5732 5737 5741 5745 5748 5751 5757 5763 5767 5770 5773 5778 5782 5786 5790 5793 5798 5804 5808 5809 5811 5814 5818 5822 5825 5826 5826 5829 5829 5830 5832 5833 5834 5836 5840 5842 5842 5844 5845 5846 5849 5852 5854 5855 5856 5858 5860 5862 5863 5864 5866
5477 5483 5490 5497 5504 5512 5516 5521 5529 5538 5548 5559 5569 5577 5587 5596 5603 5609 5614 5617 5620 5628 5638 5645 5652 5658 5661 5668 5678 5683 5689 5696 5702 5709 5713 5714 5720 5725 5730 5735 5740 5743 5748 5755 5761 5765 5768 5772 5777 5781 5784 5787 5790 5794 5800 5805 5807 5809 5813 5817 5821 5824 5824 5824 5825 5827 5829 5829 5831 5832 5834 5838 5839 5840 5842 5843 5844 5847 5849 5851 5852 5854 5856 5858 5860 5861 5863 5864
5475 5481 5487 5494 5501 5507 5512 5517 5524 5535 5546 5556 5565 5574 5583 5592 5600 5607 5611 5612 5615 5625 5633 5638 5645 5650 5657 5667 5675 5679 5685 5691 5696 5702 5707 5712 5718 5722 5725 5730 5733 5738 5745 5751 5756 5760 5764 5769 5774 5778 5781 5785 5787 5792 5798 5803 5805 5807 5811 5816 5819 5821 5820 5820 5823 5826 5827 5827 5828 5830 5833 5836 5837 5838 5840 5841 5842 5845 5847 5848 5850 5852 5854 5856 5858 5860 5861 5862
5472 5478 5485 5492 5499 5504 5508 5512 5520 5532 5543 5551 5562 5572 5580 5590 5599 5605 5609 5609 5612 5617 5622 5627 5635 5644 5653 5659 5664 5673 5681 5683 5688 5696 5703 5709 5715 5720 5724 5727 5732 5737 5742 5747 5751 5754 5759 5764 5769 5773 5778 5782 5785 5790 5796 5800 5802 5803 5808 5813 5816 5817 5816 5818 5821 5824 5823 5823 5827 5829 5831 5834 5835 5836 5838 5839 5840 5843 5845 5846 5848 5851 5852 5854 5855 5857 5858 5859
5470 5477 5483 5490 5497 5502 5506 5511 5519 5531 5540 5549 5561 5571 5578 5588 5597 5602 5605 5606 5606 5610 5616 5624 5634 5644 5650 5653 5659 5667 5669 5671 5681 5690 5695 5702 5708 5715 5719 5725 5731 5735 5738 5742 5745 5749 5755 5760 5764 5769 5775 5778 5781 5787 5793 5796 5798 5801 5807 5811 5812 5813 5814 5816 5820 5821 5820 5821 5825 5827 5828 5830 5834 5836 5837 5838 5839 5841 5843 5845 5847 5849 5850 5851 5852 5854 5855 5856
5469 5475 5481 5488 5495 5501 5506 5512 5522 5532 5541 5551 5561 5569 5575 5585 5594 5597 5598 5599 5600 5605 5613 5621 5634 5644 5647 5649 5657 5663 5665 5673 5681 5684 5691 5698 5703 5708 5714 5721 5728 5731 5735 5740 5744 5749 5754 5757 5762 5767 5772 5776 5781 5786 5790 5794 5796 5799 5805 5808 5809 5810 5811 5813 5816 5818 5818 5818 5821 5824 5825 5827 5832 5835 5835 5836 5838 5840 5841 5843 5845 5847 5848 5849 5850 5851 5852 5853
5468 5474 5480 5486 5492 5498 5502 5508 5518 5529 5539 5549 5557 5564 5571 5581 5590 5591 5590 5593 5596 5602 5609 5619 5630 5635 5636 5643 5651 5656 5663 5673 5679 5682 5688 5692 5696 5703 5709 5716 5722 5725 5731 5738 5743 5747 5752 5756 5761 5766 5771 5776 5781 5784 5788 5792 5794 5796 5801 5804 5805 5807 5808 5810 5813 5815 5815 5814 5817 5822 5823 5825 5829 5833 5835 5836 5839 5840 5840 5841 5842 5843 5845 5846 5847 5849 5850 5851
5467 5472 5478 5484 5491 5496 5500 5506 5514 5522 5532 5542 5550 5558 5566 5575 5581 5580 5579 5586 5593 5598 5604 5613 5619 5621 5627 5636 5642 5648 5657 5664 5671 5678 5681 5684 5690 5697 5704 5711 5716 5720 5726 5732 5736 5743 5750 5753 5757 5762 5768 5773 5777 5780 5784 5788 5789 5792 5796 5799 5802 5803 5804 5805 5808 5811 5810 5809 5814 5819 5820 5822 5826 5830 5834 5836 5838 5839 5839 5839 5840 5841 5842 5844 5845 5846 5847 5848
5465 5471 5477 5484 5489 5494 5499 5506 5513 5520 5527 5536 5544 5551 5558 5565 5571 5570 5573 5583 5590 5594 5598 5604 5611 5616 5623 5630 5634 5643 5652 5658 5664 5668 5672 5679 5685 5689 5694 5700 5705 5712 5719 5724 5731 5739 5744 5747 5753 5760 5765 5767 5770 5775 5779 5782 5784 5788 5792 5795 5798 5799 5800 5801 5803 5805 5805 5805 5811 5816 5819 5820 5823 5828 5834 5835 5836 5838 5837 5837 5837 5838 5840 5841 5843 5844 5845 5846
5463 5469 5475 5481 5487 5493 5499 5505 5512 5519 5527 5534 5539 5545 5550 5555 5558 5561 5571 5582 5587 5589 5593 5598 5604 5612 5621 5627 5633 5640 5646 5652 5659 5663 5669 5676 5680 5685 5691 5695 5699 5705 5711 5719 5728 5735 5739 5744 5750 5755 5758 5761 5765 5770 5773 5776 5780 5783 5786 5790 5793 5794 5795 5796 5797 5799 5801 5802 5807 5814 5817 5817 5819 5826 5831 5832 5834 5835 5835 5835 5836 5836 5838 5839 5841 5842 5843 5843
5461 5467 5473 5480 5486 5492 5496 5502 5509 5515 5522 5530 5534 5538 5542 5545 5549 5559 5570 5577 5581 5585 5590 5595 5602 5611 5619 5624 5629 5636 5643 5649 5653 5660 5668 5673 5677 5683 5690 5695 5699 5704 5710 5718 5723 5727 5732 5737 5741 5746 5751 5755 5759 5764 5768 5772 5776 5778 5780 5784 5787 5788 5789 5791 5792 5795 5798 5801 5805 5810 5814 5814 5816 5822 5827 5829 5831 5831 5832 5833 5833 5834 5835 5837 5839 5840 5840 5841
5460 5466 5472 5478 5484 5489 5493 5499 5505 5510 5517 5523 5526 5531 5534 5538 5548 5560 5568 5573 5579 5585 5590 5595 5602 5610 5616 5620 5624 5630 5638 5644 5648 5655 5662 5665 5669 5675 5681 5686 5693 5703 5712 5717 5719 5724 5728 5729 5735 5741 5746 5750 5754 5759 5764 5768 5772 5775 5776 5780 5783 5785 5788 5790 5790 5793 5797 5799 5801 5805 5809 5811 5813 5819 5823 5826 5827 5828 5830 5831 5831 5832 5833 5834 5836 5837 5838 5839
5459 5464 5470 5475 5480 5485 5491 5497 5502 5507 5513 5517 5521 5526 5528 5535 5548 5559 5564 5571 5578 5584 5589 5595 5601 5606 5612 5617 5623 5629 5634 5639 5645 5651 5655 5657 5662 5668 5675 5682 5692 5701 5706 5710 5717 5725 5727 5730 5738 5743 5745 5749 5752 5755 5760 5763 5766 5768 5770 5774 5779 5783 5784 5786 5788 5790 5793 5794 5796 5800 5805 5808 5811 5815 5817 5821 5824 5825 5827 5828 5829 5830 5831 5832 5833 5834 5835 5837
5457 5463 5468 5473 5478 5483 5488 5494 5499 5504 5509 5512 5518 5522 5526 5536 5549 5558 5565 5572 5579 5584 5588 5593 5598 5602 5607 5611 5617 5624 5629 5636 5642 5646 5650 5656 5662 5667 5673 5682 5691 5697 5701 5707 5715 5721 5723 5727 5735 5740 5743 5748 5750 5752 5758 5761 5763 5765 5765 5769 5776 5779 5781 5782 5785 5788 5789 5790 5792 5796 5801 5805 5808 5810 5813 5817 5820 5823 5825 5826 5827 5827 5828 5829 5830 5831 5832 5833
5455 5460 5466 5470 5475 5481 5486 5491 5496 5501 5504 5509 5514 5518 5524 5536 5548 5557 5565 5572 5577 5581 5585 5589 5593 5597 5601 5605 5610 5616 5622 5630 5637 5640 5644 5652 5657 5663 5670 5678 5686 5692 5698 5706 5712 5716 5719 5723 5728 5733 5737 5741 5744 5747 5752 5756 5758 5760 5763 5769 5774 5775 5777 5779 5781 5784 5786 5786 5788 5792 5796 5800 5804 5806 5811 5815 5817 5820 5823 5823 5824 5824 5825 5826 5826 5828 5829 5830
5454 5459 5464 5469 5474 5478 5483 5487 5492 5496 5500 5505 5511 5516 5524 5534 5544 5553 5560 5567 5572 5577 5582 5586 5590 5595 5599 5603 5607 5611 5617 5624 5629 5633 5640 5646 5652 5659 5668 5676 5684 5691 5697 5704 5708 5711 5716 5720 5724 5728 5732 5736 5738 5740 5744 5747 5751 5755 5760 5765 5767 5768 5772 5775 5777 5779 5782 5783 5786 5788 5792 5796 5800 5804 5809 5812 5814 5816 5818 5820 5821 5821 5822 5823 5823 5824 5825 5826
5452 5457 5462 5467 5472 5476 5480 5484 5489 5493 5497 5502 5508 5514 5522 5531 5540 5548 5555 5562 5569 5574 5578 5583 5589 5595 5598 5602 5606 5608 5613 5620 5625 5630 5636 5643 5651 5660 5668 5675 5682 5688 5694 5699 5703 5707 5712 5715 5718 5722 5728 5731 5732 5733 5738 5743 5748 5751 5754 5757 5760 5763 5767 5771 5774 5776 5778 5781 5783 5784 5787 5791 5796 5802 5806 5808 5810 5811 5813 5815 5817 5818 5819 5819 5820 5820 5821 5823
5450 5455 5460 5465 5469 5473 5477 5482 5486 5490 5494 5500 5506 5512 5520 5528 5536 5543 5549 5557 5564 5569 5574 5579 5586 5592 5596 5600 5603 5606 5611 5618 5623 5629 5635 5643 5653 5660 5665 5672 5679 5685 5690 5695 5697 5700 5705 5708 5712 5717 5720 5722 5725 5730 5736 5742 5745 5748 5750 5753 5756 5759 5762 5767 5770 5773 5775 5778 5780 5781 5784 5787 5792 5798 5802 5804 5805 5807 5808 5809 5812 5814 5815 5815 5815 5817 5818 5820
5449 5454 5458 5462 5466 5470 5474 5478 5483 5487 5493 5498 5503 5510 5517 5523 5530 5536 5543 5552 5561 5566 5572 5577 5582 5588 5594 5598 5601 5604 5609 5613 5620 5627 5633 5641 5648 5654 5661 5669 5676 5681 5684 5686 5688 5692 5697 5701 5706 5710 5713 5718 5725 5730 5734 5736 5740 5745 5748 5751 5754 5757 5760 5764 5767 5772 5774 5775 5778 5779 5780 5785 5789 5792 5797 5800 5800 5802 5803 5804 5806 5808 5809 5811 5812 5813 5815 5816
5447 5451 5456 5460 5464 5468 5473 5476 5481 5486 5491 5496 5501 5507 5513 5518 5525 5531 5539 5549 5558 5564 5569 5574 5578 5584 5590 5595 5599 5603 5606 5610 5616 5623 5630 5639 5647 5655 5664 5670 5674 5677 5678 5681 5685 5689 5692 5695 5700 5704 5709 5715 5720 5722 5725 5730 5735 5739 5741 5745 5749 5751 5755 5760 5764 5769 5771 5771 5774 5774 5776 5782 5786 5786 5790 5794 5796 5798 5798 5798 5800 5802 5804 5806 5808 5810 5811 5812
5444 5449 5454 5458 5462 5466 5470 5474 5478 5483 5489 5494 5499 5504 5510 5516 5521 5527 5536 5546 5554 5560 5565 5569 5575 5580 5585 5591 5596 5600 5603 5607 5613 5621 5630 5639 5648 5656 5663 5666 5669 5671 5672 5675 5677 5679 5682 5688 5694 5698 5702 5707 5711 5715 5721 5725 5727 5730 5735 5741 5744 5747 5754 5758 5760 5763 5763 5766 5770 5770 5772 5779 5782 5783 5784 5787 5792 5795 5794 5793 5795 5797 5799 5802 5804 5805 5806 5807
5443 5447 5452 5456 5460 5464 5469 5473 5478 5483 5487 5492 5497 5502 5507 5513 5519 5525 5533 5542 5550 5557 5561 5566 5571 5576 5583 5589 5593 5598 5602 5604 5611 5620 5628 5635 5643 5650 5655 5659 5663 5664 5665 5667 5669 5674 5680 5683 5687 5690 5693 5697 5701 5707 5712 5716 5721 5726 5733 5738 5741 5746 5751 5751 5753 5754 5753 5760 5765 5764 5768 5775 5777 5779 5779 5781 5788 5791 5790 5790 5792 5792 5795 5797 5799 5800 5801 5802
5440 5444 5449 5454 5458 5463 5469 5473 5478 5482 5486 5491 5496 5500 5506 5511 5517 5522 5529 5538 5547 5553 5557 5562 5568 5574 5580 5585 5590 5594 5598 5602 5608 5615 5623 5629 5635 5641 5645 5652 5656 5657 5662 5666 5669 5674 5676 5676 5679 5683 5684 5686 5692 5700 5707 5715 5720 5724 5727 5732 5737 5739 5739 5740 5744 5742 5745 5755 5757 5757 5765 5772 5773 5776 5776 5778 5783 5786 5786 5787 5789 5789 5791 5792 5793 5794 5794 5794
5437 5442 5447 5452 5458 5464 5469 5473 5477 5481 5487 5492 5496 5500 5505 5510 5515 5520 5526 5535 5543 5549 5553 5558 5564 5571 5576 5581 5586 5590 5594 5600 5605 5611 5617 5622 5628 5634 5640 5646 5651 5655 5660 5662 5663 5668 5670 5670 5675 5679 5682 5688 5696 5704 5711 5716 5717 5719 5723 5727 5730 5730 5730 5732 5734 5735 5745 5753 5749 5753 5765 5769 5772 5775 5773 5774 5779 5781 5781 5783 5784 5786 5786 5787 5786 5786 5786 5787
5436 5442 5447 5453 5459 5464 5468 5472 5477 5482 5486 5490 5495 5499 5504 5508 5512 5517 5523 5530 5538 5544 5548 5554 5562 5568 5572 5577 5582 5586 5591 5596 5601 5607 5613 5618 5624 5631 5636 5642 5646 5649 5653 5654 5656 5662 5664 5665 5670 5676 5683 5691 5695 5699 5706 5710 5712 5716 5721 5723 5726 5727 5727 5728 5729 5738 5750 5746 5741 5755 5767 5767 5771 5773 5768 5770 5774 5774 5776 5777 5778 5780 5780 5780 5779 5779 5780 5782
5435 5441 5447 5453 5458 5464 5468 5472 5475 5479 5482 5486 5491 5494 5498 5503 5509 5514 5520 5526 5533 5540 5544 5551 5560 5566 5570 5575 5579 5583 5588 5593 5598 5604 5608 5614 5621 5626 5631 5636 5639 5642 5646 5648 5651 5655 5657 5661 5668 5674 5680 5686 5688 5691 5698 5703 5706 5710 5713 5716 5720 5722 5723 5724 5729 5740 5745 5736 5741 5759 5763 5760 5766 5767 5763 5766 5767 5766 5770 5770 5771 5773 5773 5773 5773 5774 5775 5777
5435 5439 5443 5449 5455 5460 5465 5468 5471 5474 5477 5482 5487 5491 5495 5501 5507 5513 5517 5522 5529 5536 5541 5549 5557 5562 5567 5572 5576 5581 5586 5590 5596 5601 5605 5611 5616 5621 5625 5628 5632 5637 5640 5642 5646 5649 5653 5659 5665 5670 5675 5679 5681 5685 5691 5695 5698 5701 5703 5707 5711 5713 5715 5720 5725 5733 5734 5730 5740 5753 5752 5752 5759 5759 5759 5761 5759 5761 5765 5765 5765 5765 5766 5768 5768 5768 5770 5772
5432 5436 5441 5446 5451 5455 5459 5464 5469 5473 5477 5481 5486 5491 5497 5502 5508 5512 5516 5520 5527 5533 5540 5548 5555 5560 5565 5570 5574 5580 5584 5588 5593 5598 5603 5607 5611 5617 5622 5624 5629 5634 5635 5637 5642 5646 5652 5658 5662 5667 5670 5671 5675 5681 5685 5686 5689 5693 5696 5700 5703 5704 5708 5712 5717 5724 5725 5725 5737 5744 5742 5747 5753 5752 5753 5755 5754 5756 5758 5759 5760 5760 5761 5763 5762 5763 5766 5768
5430 5435 5440 5445 5449 5453 5457 5462 5467 5472 5477 5482 5487 5493 5497 5503 5508 5512 5516 5521 5525 5532 5540 5547 5551 5555 5560 5566 5573 5578 5581 5584 5589 5594 5599 5603 5607 5613 5616 5620 5626 5629 5630 5634 5638 5643 5650 5654 5658 5661 5661 5663 5672 5676 5675 5678 5682 5682 5685 5691 5696 5699 5703 5709 5715 5721 5721 5723 5732 5734 5734 5744 5751 5749 5748 5749 5749 5751 5752 5755 5757 5756 5756 5755 5755 5758 5761 5763
5428 5433 5437 5442 5447 5452 5456 5460 5464 5470 5477 5483 5488 5492 5496 5500 5503 5508 5514 5520 5525 5531 5536 5539 5542 5547 5553 5563 5571 5574 5577 5581 5585 5589 5594 5598 5603 5607 5610 5614 5620 5622 5626 5632 5635 5640 5647 5649 5651 5653 5655 5662 5668 5666 5669 5673 5668 5665 5676 5690 5695 5698 5702 5705 5710 5715 5716 5718 5723 5725 5732 5745 5747 5742 5742 5743 5742 5745 5749 5751 5752 5751 5749 5747 5748 5751 5753 5756